Time,TemperatureF,DewpointF,PressureIn,WindDirection,WindDirectionDegrees,WindSpeedMPH,WindSpeedGustMPH,Humidity,HourlyPrecipIn,Conditions,Clouds,dailyrainin,SoftwareType,DateUTC
2013-05-22 00:00:00,70.6,68.5,29.82,SSE,159,0.0,0.0,93,0.00,,CLR,0.00,VWS V14.01,2013-05-22 04:00:00,
2013-05-22 00:01:00,70.7,68.6,29.82,SSE,159,0.0,0.0,93,0.00,,CLR,0.00,VWS V14.01,2013-05-22 04:01:00,
2013-05-22 00:06:00,70.6,68.5,29.82,SE,142,1.0,1.0,93,0.00,,CLR,0.00,VWS V14.01,2013-05-22 04:06:00,
2013-05-22 00:12:00,70.6,68.5,29.82,SSW,212,0.0,2.0,93,0.00,,CLR,0.00,VWS V14.01,2013-05-22 04:12:00,
2013-05-22 00:17:00,70.7,68.6,29.82,SW,235,1.0,3.0,93,0.00,,CLR,0.00,VWS V14.01,2013-05-22 04:17:00,
2013-05-22 00:22:00,70.9,68.8,29.82,South,186,0.0,1.0,93,0.00,,CLR,0.00,VWS V14.01,2013-05-22 04:22:00,
2013-05-22 00:27:00,70.9,68.8,29.83,WSW,245,0.0,2.0,93,0.00,,CLR,0.00,VWS V14.01,2013-05-22 04:27:00,
2013-05-22 00:32:00,70.9,68.8,29.83,West,261,0.0,1.0,93,0.00,,CLR,0.00,VWS V14.01,2013-05-22 04:32:00,
2013-05-22 00:37:00,70.9,68.8,29.83,SSE,168,0.0,2.0,93,0.00,,CLR,0.00,VWS V14.01,2013-05-22 04:37:00,
2013-05-22 00:42:00,70.9,68.8,29.83,West,281,0.0,2.0,93,0.00,,CLR,0.00,VWS V14.01,2013-05-22 04:42:00,
2013-05-22 00:47:00,70.9,68.5,29.83,WSW,239,0.0,3.0,92,0.00,,CLR,0.00,VWS V14.01,2013-05-22 04:47:00,
2013-05-22 00:52:00,70.7,68.6,29.83,WSW,248,0.0,1.0,93,0.00,,CLR,0.00,VWS V14.01,2013-05-22 04:52:00,
2013-05-22 00:57:00,70.4,68.3,29.83,WSW,248,1.0,1.0,93,0.00,,CLR,0.00,VWS V14.01,2013-05-22 04:57:00,
2013-05-22 01:02:00,70.3,68.2,29.83,SSE,150,0.0,1.0,93,0.00,,,0.00,VWS V14.01,2013-05-22 05:02:00,
2013-05-22 01:07:00,70.1,68.3,29.83,South,174,0.0,1.0,94,0.00,,,0.00,VWS V14.01,2013-05-22 05:07:00,
2013-05-22 01:13:00,70.0,68.2,29.82,SW,214,0.0,1.0,94,0.00,,,0.00,VWS V14.01,2013-05-22 05:13:00,
2013-05-22 01:18:00,70.1,68.3,29.83,SSE,148,0.0,1.0,94,0.00,,,0.00,VWS V14.01,2013-05-22 05:18:00,
2013-05-22 01:23:00,70.0,68.2,29.83,SE,129,0.0,0.0,94,0.00,,,0.00,VWS V14.01,2013-05-22 05:23:00,
2013-05-22 01:28:00,69.8,68.0,29.83,South,177,0.0,2.0,94,0.00,,,0.00,VWS V14.01,2013-05-22 05:28:00,
2013-05-22 01:33:00,69.4,67.6,29.82,SE,134,0.0,1.0,94,0.00,,,0.00,VWS V14.01,2013-05-22 05:33:00,
2013-05-22 01:38:00,69.2,67.7,29.82,SE,134,0.0,1.0,95,0.00,,,0.00,VWS V14.01,2013-05-22 05:38:00,
2013-05-22 01:43:00,69.0,67.5,29.82,SE,134,0.0,0.0,95,0.00,,,0.00,VWS V14.01,2013-05-22 05:43:00,
2013-05-22 01:49:00,68.9,67.7,29.82,SE,134,0.0,0.0,96,0.00,,,0.00,VWS V14.01,2013-05-22 05:49:00,
2013-05-22 01:54:00,69.0,67.8,29.82,SE,134,1.0,1.0,96,0.00,,,0.00,VWS V14.01,2013-05-22 05:54:00,
2013-05-22 01:59:00,68.8,67.6,29.82,SE,134,0.0,0.0,96,0.00,,,0.00,VWS V14.01,2013-05-22 05:59:00,
2013-05-22 02:04:00,68.8,67.6,29.82,SE,134,0.0,1.0,96,0.00,,,0.00,VWS V14.01,2013-05-22 06:04:00,
2013-05-22 02:09:00,68.8,67.6,29.82,SE,135,0.0,0.0,96,0.00,,,0.00,VWS V14.01,2013-05-22 06:09:00,
2013-05-22 02:14:00,68.7,67.5,29.81,SE,144,0.0,1.0,96,0.00,,,0.00,VWS V14.01,2013-05-22 06:14:00,
2013-05-22 02:19:00,68.8,67.6,29.81,SSE,156,0.0,1.0,96,0.00,,,0.00,VWS V14.01,2013-05-22 06:19:00,
2013-05-22 02:24:00,68.8,67.6,29.81,SSE,149,2.0,2.0,96,0.00,,,0.00,VWS V14.01,2013-05-22 06:24:00,
2013-05-22 02:29:00,68.7,67.5,29.81,SSE,161,2.0,3.0,96,0.00,,,0.00,VWS V14.01,2013-05-22 06:29:00,
2013-05-22 02:34:00,68.7,67.5,29.81,SE,139,1.0,2.0,96,0.00,,,0.00,VWS V14.01,2013-05-22 06:34:00,
2013-05-22 02:39:00,68.2,67.0,29.81,SE,131,0.0,2.0,96,0.00,,,0.00,VWS V14.01,2013-05-22 06:39:00,
2013-05-22 02:44:00,68.0,67.1,29.81,East,94,2.0,2.0,97,0.00,,,0.00,VWS V14.01,2013-05-22 06:44:00,
2013-05-22 02:50:00,68.0,67.1,29.81,East,90,1.0,1.0,97,0.00,,,0.00,VWS V14.01,2013-05-22 06:50:00,
2013-05-22 02:55:00,68.3,67.7,29.80,ESE,108,1.0,1.0,98,0.00,,,0.00,VWS V14.01,2013-05-22 06:55:00,
2013-05-22 03:00:00,68.4,67.5,29.80,SSE,148,1.0,2.0,97,0.00,,,0.00,VWS V14.01,2013-05-22 07:00:00,
2013-05-22 03:05:00,68.3,67.4,29.80,SSE,148,2.0,3.0,97,0.00,,,0.00,VWS V14.01,2013-05-22 07:05:00,
2013-05-22 03:10:00,68.4,67.5,29.80,SSE,167,1.0,3.0,97,0.00,,,0.00,VWS V14.01,2013-05-22 07:10:00,
2013-05-22 03:15:00,68.5,67.6,29.81,SSE,162,2.0,2.0,97,0.00,,,0.00,VWS V14.01,2013-05-22 07:15:00,
2013-05-22 03:20:00,68.4,67.5,29.81,SSE,166,2.0,4.0,97,0.00,,,0.00,VWS V14.01,2013-05-22 07:20:00,
2013-05-22 03:25:00,68.4,67.5,29.80,SSE,155,3.0,3.0,97,0.00,,,0.00,VWS V14.01,2013-05-22 07:25:00,
2013-05-22 03:30:00,68.3,67.4,29.81,SSE,165,1.0,3.0,97,0.00,,,0.00,VWS V14.01,2013-05-22 07:30:00,
2013-05-22 03:35:00,68.2,67.3,29.81,SSE,149,0.0,2.0,97,0.00,,,0.00,VWS V14.01,2013-05-22 07:35:00,
2013-05-22 03:40:00,67.9,67.0,29.80,SE,129,0.0,1.0,97,0.00,,,0.00,VWS V14.01,2013-05-22 07:40:00,
2013-05-22 03:45:00,67.6,66.7,29.81,SE,129,0.0,0.0,97,0.00,,,0.00,VWS V14.01,2013-05-22 07:45:00,
2013-05-22 03:50:00,67.5,66.6,29.81,ESE,113,0.0,1.0,97,0.00,,,0.00,VWS V14.01,2013-05-22 07:50:00,
2013-05-22 03:55:00,67.4,66.8,29.81,ESE,113,0.0,0.0,98,0.00,,,0.00,VWS V14.01,2013-05-22 07:55:00,
2013-05-22 04:00:00,67.5,66.9,29.81,ESE,110,0.0,1.0,98,0.00,,,0.00,VWS V14.01,2013-05-22 08:00:00,
2013-05-22 04:05:00,67.3,66.7,29.81,ESE,110,0.0,0.0,98,0.00,,,0.00,VWS V14.01,2013-05-22 08:05:00,
2013-05-22 04:10:00,67.2,66.6,29.81,ESE,110,0.0,0.0,98,0.00,,,0.00,VWS V14.01,2013-05-22 08:10:00,
2013-05-22 04:15:00,67.2,66.6,29.81,ESE,110,0.0,0.0,98,0.00,,,0.00,VWS V14.01,2013-05-22 08:15:00,
2013-05-22 04:20:00,67.2,66.6,29.81,ESE,110,0.0,0.0,98,0.00,,,0.00,VWS V14.01,2013-05-22 08:20:00,
2013-05-22 04:25:00,67.2,66.6,29.81,ESE,110,0.0,0.0,98,0.00,,,0.00,VWS V14.01,2013-05-22 08:25:00,
2013-05-22 04:30:00,67.1,66.5,29.81,ESE,110,0.0,0.0,98,0.00,,,0.00,VWS V14.01,2013-05-22 08:30:00,
2013-05-22 04:35:00,66.3,65.4,29.81,ESE,110,0.0,0.0,97,0.00,,,0.00,VWS V14.01,2013-05-22 08:35:00,
2013-05-22 04:40:00,66.0,65.4,29.81,ESE,110,0.0,0.0,98,0.00,,,0.00,VWS V14.01,2013-05-22 08:40:00,
2013-05-22 04:46:00,65.8,65.2,29.81,ESE,110,1.0,1.0,98,0.00,,,0.00,VWS V14.01,2013-05-22 08:46:00,
2013-05-22 04:51:00,65.8,65.5,29.81,ESE,110,0.0,0.0,99,0.00,,,0.00,VWS V14.01,2013-05-22 08:51:00,
2013-05-22 04:56:00,65.9,65.6,29.80,ESE,121,1.0,1.0,99,0.00,,,0.00,VWS V14.01,2013-05-22 08:56:00,
2013-05-22 05:01:00,65.9,65.6,29.80,ESE,120,2.0,3.0,99,0.00,,,0.00,VWS V14.01,2013-05-22 09:01:00,
2013-05-22 05:06:00,66.1,65.8,29.80,SE,139,1.0,1.0,99,0.00,,,0.00,VWS V14.01,2013-05-22 09:06:00,
2013-05-22 05:11:00,66.3,66.0,29.80,SSE,151,2.0,3.0,99,0.00,,,0.00,VWS V14.01,2013-05-22 09:11:00,
2013-05-22 05:16:00,66.8,66.8,29.80,SSE,148,3.0,4.0,100,0.00,,,0.00,VWS V14.01,2013-05-22 09:16:00,
2013-05-22 05:21:00,67.0,67.0,29.81,SW,231,1.0,2.0,100,0.00,,,0.00,VWS V14.01,2013-05-22 09:21:00,
2013-05-22 05:26:00,66.7,66.4,29.81,SW,228,0.0,0.0,99,0.00,,,0.00,VWS V14.01,2013-05-22 09:26:00,
2013-05-22 05:31:00,66.4,66.1,29.81,SW,226,0.0,1.0,99,0.00,,,0.00,VWS V14.01,2013-05-22 09:31:00,
2013-05-22 05:37:00,66.3,66.0,29.82,SW,228,0.0,0.0,99,0.00,,,0.00,VWS V14.01,2013-05-22 09:37:00,
2013-05-22 05:42:00,66.3,66.0,29.82,SW,228,0.0,0.0,99,0.00,,,0.00,VWS V14.01,2013-05-22 09:42:00,
2013-05-22 05:47:00,66.2,65.9,29.82,SE,131,0.0,0.0,99,0.00,,,0.00,VWS V14.01,2013-05-22 09:47:00,
2013-05-22 05:52:00,66.3,66.0,29.82,East,90,0.0,1.0,99,0.00,,,0.00,VWS V14.01,2013-05-22 09:52:00,
2013-05-22 05:57:00,66.5,66.5,29.82,ESE,115,1.0,2.0,100,0.00,,,0.00,VWS V14.01,2013-05-22 09:57:00,
2013-05-22 06:02:00,66.8,66.8,29.82,ESE,113,1.0,1.0,100,0.00,,,0.00,VWS V14.01,2013-05-22 10:02:00,
2013-05-22 06:07:00,66.9,66.9,29.82,ESE,120,0.0,1.0,100,0.00,,,0.00,VWS V14.01,2013-05-22 10:07:00,
2013-05-22 06:12:00,66.9,66.9,29.82,SE,126,0.0,0.0,100,0.00,,,0.00,VWS V14.01,2013-05-22 10:12:00,
2013-05-22 06:17:00,66.9,66.9,29.82,SE,136,0.0,0.0,100,0.00,,,0.00,VWS V14.01,2013-05-22 10:17:00,
2013-05-22 06:22:00,67.0,66.7,29.82,SE,137,0.0,0.0,99,0.00,,,0.00,VWS V14.01,2013-05-22 10:22:00,
2013-05-22 06:27:00,67.1,66.8,29.82,SE,137,0.0,0.0,99,0.00,,,0.00,VWS V14.01,2013-05-22 10:27:00,
2013-05-22 06:33:00,67.3,67.0,29.83,SE,136,0.0,0.0,99,0.00,,,0.00,VWS V14.01,2013-05-22 10:33:00,
2013-05-22 06:38:00,67.4,67.1,29.83,SE,129,0.0,1.0,99,0.00,,,0.00,VWS V14.01,2013-05-22 10:38:00,
2013-05-22 06:43:00,67.3,67.0,29.83,SE,129,0.0,1.0,99,0.00,,,0.00,VWS V14.01,2013-05-22 10:43:00,
2013-05-22 06:48:00,67.3,67.0,29.83,SE,129,0.0,0.0,99,0.00,,,0.00,VWS V14.01,2013-05-22 10:48:00,
2013-05-22 06:53:00,67.6,67.3,29.83,SE,130,0.0,1.0,99,0.00,,,0.00,VWS V14.01,2013-05-22 10:53:00,
2013-05-22 06:58:00,67.8,67.5,29.83,ESE,120,0.0,2.0,99,0.00,,,0.00,VWS V14.01,2013-05-22 10:58:00,
2013-05-22 07:03:00,68.1,67.8,29.83,SE,134,1.0,1.0,99,0.00,,,0.00,VWS V14.01,2013-05-22 11:03:00,
2013-05-22 07:08:00,68.3,68.0,29.83,ESE,117,1.0,2.0,99,0.00,,,0.00,VWS V14.01,2013-05-22 11:08:00,
2013-05-22 07:13:00,68.5,68.2,29.83,SE,138,2.0,3.0,99,0.00,,,0.00,VWS V14.01,2013-05-22 11:13:00,
2013-05-22 07:18:00,68.6,68.3,29.83,ESE,120,2.0,5.0,99,0.00,,,0.00,VWS V14.01,2013-05-22 11:18:00,
2013-05-22 07:23:00,68.6,68.3,29.84,SE,133,0.0,3.0,99,0.00,,,0.00,VWS V14.01,2013-05-22 11:23:00,
2013-05-22 07:28:00,68.6,68.3,29.83,SSE,161,2.0,4.0,99,0.00,,,0.00,VWS V14.01,2013-05-22 11:28:00,
2013-05-22 07:33:00,68.6,68.3,29.84,SSW,200,0.0,4.0,99,0.00,,,0.00,VWS V14.01,2013-05-22 11:33:00,
2013-05-22 07:39:00,68.6,68.3,29.84,SE,142,0.0,4.0,99,0.00,,,0.00,VWS V14.01,2013-05-22 11:39:00,
2013-05-22 07:44:00,68.6,68.3,29.85,WSW,238,1.0,5.0,99,0.00,,,0.00,VWS V14.01,2013-05-22 11:44:00,
2013-05-22 07:49:00,68.8,68.5,29.85,SW,236,0.0,3.0,99,0.00,,,0.00,VWS V14.01,2013-05-22 11:49:00,
2013-05-22 07:54:00,68.8,68.5,29.85,SW,224,4.0,4.0,99,0.00,,,0.00,VWS V14.01,2013-05-22 11:54:00,
2013-05-22 07:59:00,68.7,68.4,29.85,South,183,0.0,4.0,99,0.00,,,0.00,VWS V14.01,2013-05-22 11:59:00,
2013-05-22 08:04:00,68.7,68.4,29.86,WSW,250,3.0,3.0,99,0.00,,,0.00,VWS V14.01,2013-05-22 12:04:00,
2013-05-22 08:09:00,68.7,68.4,29.86,SW,225,1.0,4.0,99,0.00,,,0.00,VWS V14.01,2013-05-22 12:09:00,
2013-05-22 08:14:00,68.9,68.6,29.86,SE,125,4.0,4.0,99,0.00,,,0.00,VWS V14.01,2013-05-22 12:14:00,
2013-05-22 08:19:00,69.2,68.9,29.86,SSE,162,3.0,5.0,99,0.00,,,0.00,VWS V14.01,2013-05-22 12:19:00,
2013-05-22 08:25:00,69.6,69.3,29.86,SSE,165,2.0,4.0,99,0.00,,,0.00,VWS V14.01,2013-05-22 12:25:00,
2013-05-22 08:30:00,69.9,69.6,29.86,SSE,162,1.0,3.0,99,0.00,,,0.00,VWS V14.01,2013-05-22 12:30:00,
2013-05-22 08:35:00,70.7,70.4,29.86,SE,139,3.0,3.0,99,0.00,,,0.00,VWS V14.01,2013-05-22 12:35:00,
2013-05-22 08:40:00,71.2,70.6,29.86,South,170,2.0,3.0,98,0.00,,,0.00,VWS V14.01,2013-05-22 12:40:00,
2013-05-22 08:45:00,71.8,70.9,29.86,West,273,4.0,5.0,97,0.00,,,0.00,VWS V14.01,2013-05-22 12:45:00,
2013-05-22 08:50:00,71.8,70.3,29.86,SW,231,4.0,4.0,95,0.00,,,0.00,VWS V14.01,2013-05-22 12:50:00,
2013-05-22 08:55:00,71.6,70.1,29.86,SW,215,3.0,4.0,95,0.00,,,0.00,VWS V14.01,2013-05-22 12:55:00,
2013-05-22 09:00:00,71.9,70.4,29.86,SW,214,1.0,4.0,95,0.00,,,0.00,VWS V14.01,2013-05-22 13:00:00,
2013-05-22 09:05:00,72.6,70.8,29.86,West,263,1.0,4.0,94,0.00,,,0.00,VWS V14.01,2013-05-22 13:05:00,
2013-05-22 09:10:00,72.3,70.2,29.86,WSW,240,2.0,4.0,93,0.00,,,0.00,VWS V14.01,2013-05-22 13:10:00,
2013-05-22 09:16:00,72.4,70.6,29.86,SW,225,2.0,3.0,94,0.00,,,0.00,VWS V14.01,2013-05-22 13:16:00,
2013-05-22 09:21:00,72.6,70.5,29.86,South,177,3.0,7.0,93,0.00,,,0.00,VWS V14.01,2013-05-22 13:21:00,
2013-05-22 09:26:00,72.8,70.7,29.86,SSW,198,2.0,6.0,93,0.00,,,0.00,VWS V14.01,2013-05-22 13:26:00,
2013-05-22 09:31:00,73.5,71.0,29.86,South,188,3.0,5.0,92,0.00,,,0.00,VWS V14.01,2013-05-22 13:31:00,
2013-05-22 09:36:00,74.1,71.6,29.86,SSE,158,3.0,3.0,92,0.00,,,0.00,VWS V14.01,2013-05-22 13:36:00,
2013-05-22 09:41:00,74.6,71.5,29.86,SW,215,1.0,4.0,90,0.00,,,0.00,VWS V14.01,2013-05-22 13:41:00,
2013-05-22 09:46:00,74.9,71.4,29.86,SSE,168,0.0,5.0,89,0.00,,,0.00,VWS V14.01,2013-05-22 13:46:00,
2013-05-22 09:51:00,75.6,71.8,29.86,SSE,162,1.0,2.0,88,0.00,,,0.00,VWS V14.01,2013-05-22 13:51:00,
2013-05-22 09:56:00,76.5,72.3,29.86,SSW,197,0.0,3.0,87,0.00,,,0.00,VWS V14.01,2013-05-22 13:56:00,
2013-05-22 10:01:00,77.1,72.6,29.86,SE,124,3.0,4.0,86,0.00,,,0.00,VWS V14.01,2013-05-22 14:01:00,
2013-05-22 10:06:00,77.1,71.9,29.86,SW,226,4.0,7.0,84,0.00,,,0.00,VWS V14.01,2013-05-22 14:06:00,
2013-05-22 10:11:00,77.1,71.9,29.86,West,276,2.0,6.0,84,0.00,,,0.00,VWS V14.01,2013-05-22 14:11:00,
2013-05-22 10:16:00,77.0,71.8,29.86,SSW,208,2.0,4.0,84,0.00,,,0.00,VWS V14.01,2013-05-22 14:16:00,
2013-05-22 10:22:00,77.4,71.8,29.86,West,266,1.0,3.0,83,0.00,,,0.00,VWS V14.01,2013-05-22 14:22:00,
2013-05-22 10:27:00,78.0,72.8,29.86,WSW,257,2.0,3.0,84,0.00,,,0.00,VWS V14.01,2013-05-22 14:27:00,
2013-05-22 10:32:00,78.5,72.2,29.87,WSW,245,4.0,5.0,81,0.00,,,0.00,VWS V14.01,2013-05-22 14:32:00,
2013-05-22 10:37:00,78.5,71.1,29.86,West,278,1.0,4.0,78,0.00,,,0.00,VWS V14.01,2013-05-22 14:37:00,
2013-05-22 10:42:00,78.9,72.2,29.87,West,269,3.0,4.0,80,0.00,,,0.00,VWS V14.01,2013-05-22 14:42:00,
2013-05-22 10:47:00,78.8,71.0,29.86,West,276,1.0,3.0,77,0.00,,,0.00,VWS V14.01,2013-05-22 14:47:00,
2013-05-22 10:52:00,78.9,71.8,29.86,WSW,238,0.0,2.0,79,0.00,,,0.00,VWS V14.01,2013-05-22 14:52:00,
2013-05-22 10:57:00,80.0,71.8,29.86,SE,146,1.0,3.0,76,0.00,,,0.00,VWS V14.01,2013-05-22 14:57:00,
2013-05-22 11:02:00,81.3,73.0,29.86,South,179,2.0,5.0,76,0.00,,,0.00,VWS V14.01,2013-05-22 15:02:00,
2013-05-22 11:07:00,81.6,72.5,29.86,SW,221,0.0,4.0,74,0.00,,,0.00,VWS V14.01,2013-05-22 15:07:00,
2013-05-22 11:12:00,81.5,72.0,29.86,WSW,249,0.0,6.0,73,0.00,,,0.00,VWS V14.01,2013-05-22 15:12:00,
2013-05-22 11:17:00,80.9,71.0,29.86,SSW,207,1.0,4.0,72,0.00,,,0.00,VWS V14.01,2013-05-22 15:17:00,
2013-05-22 11:22:00,81.1,71.6,29.86,West,267,0.0,2.0,73,0.00,,,0.00,VWS V14.01,2013-05-22 15:22:00,
2013-05-22 11:27:00,81.2,71.7,29.86,SW,231,1.0,5.0,73,0.00,,,0.00,VWS V14.01,2013-05-22 15:27:00,
2013-05-22 11:32:00,81.2,71.3,29.85,SSE,158,0.0,1.0,72,0.00,,,0.00,VWS V14.01,2013-05-22 15:32:00,
2013-05-22 11:37:00,81.5,71.6,29.85,WSW,248,4.0,6.0,72,0.00,,,0.00,VWS V14.01,2013-05-22 15:37:00,
2013-05-22 11:42:00,82.0,71.7,29.85,SSW,193,3.0,5.0,71,0.00,,,0.00,VWS V14.01,2013-05-22 15:42:00,
2013-05-22 11:47:00,82.6,71.8,29.85,WSW,255,4.0,6.0,70,0.00,,,0.00,VWS V14.01,2013-05-22 15:47:00,
2013-05-22 11:52:00,82.6,71.8,29.85,East,98,2.0,7.0,70,0.00,,,0.00,VWS V14.01,2013-05-22 15:52:00,
2013-05-22 11:58:00,83.3,71.6,29.85,South,184,2.0,7.0,68,0.00,,,0.00,VWS V14.01,2013-05-22 15:58:00,
2013-05-22 12:03:00,83.0,71.8,29.84,SSW,211,3.0,5.0,69,0.00,,FEW029,0.00,VWS V14.01,2013-05-22 16:03:00,
2013-05-22 12:08:00,82.3,71.1,29.84,SW,219,1.0,7.0,69,0.00,,FEW029,0.00,VWS V14.01,2013-05-22 16:08:00,
2013-05-22 12:13:00,82.1,69.6,29.84,SW,226,2.0,6.0,66,0.00,,FEW029,0.00,VWS V14.01,2013-05-22 16:13:00,
2013-05-22 12:18:00,81.7,69.7,29.84,WSW,240,3.0,5.0,67,0.00,,FEW029,0.00,VWS V14.01,2013-05-22 16:18:00,
2013-05-22 12:23:00,81.7,70.1,29.85,WSW,250,2.0,4.0,68,0.00,,FEW029,0.00,VWS V14.01,2013-05-22 16:23:00,
2013-05-22 12:28:00,81.7,70.6,29.84,WSW,245,4.0,5.0,69,0.00,,FEW029,0.00,VWS V14.01,2013-05-22 16:28:00,
2013-05-22 12:33:00,81.7,70.1,29.84,SW,235,2.0,5.0,68,0.00,,FEW029,0.00,VWS V14.01,2013-05-22 16:33:00,
2013-05-22 12:38:00,82.0,70.8,29.84,West,260,4.0,6.0,69,0.00,,FEW029,0.00,VWS V14.01,2013-05-22 16:38:00,
2013-05-22 12:43:00,82.4,70.8,29.84,SW,214,3.0,5.0,68,0.00,,FEW029,0.00,VWS V14.01,2013-05-22 16:43:00,
2013-05-22 12:48:00,82.3,70.3,29.84,West,260,1.0,9.0,67,0.00,,FEW029,0.00,VWS V14.01,2013-05-22 16:48:00,
2013-05-22 12:53:00,83.0,69.6,29.84,WSW,250,3.0,6.0,64,0.00,,FEW029,0.00,VWS V14.01,2013-05-22 16:53:00,
2013-05-22 12:59:00,83.2,68.8,29.84,West,267,3.0,6.0,62,0.00,,FEW029,0.00,VWS V14.01,2013-05-22 16:59:00,
2013-05-22 13:04:00,83.8,69.9,29.84,West,281,4.0,6.0,63,0.00,,CLR,0.00,VWS V14.01,2013-05-22 17:04:00,
2013-05-22 13:09:00,84.0,67.7,29.84,West,277,4.0,7.0,58,0.00,,CLR,0.00,VWS V14.01,2013-05-22 17:09:00,
2013-05-22 13:14:00,83.9,67.6,29.84,WNW,291,4.0,6.0,58,0.00,,CLR,0.00,VWS V14.01,2013-05-22 17:14:00,
2013-05-22 13:19:00,84.1,66.7,29.83,ESE,121,2.0,8.0,56,0.00,,CLR,0.00,VWS V14.01,2013-05-22 17:19:00,
2013-05-22 13:24:00,85.0,68.1,29.83,West,266,1.0,5.0,57,0.00,,CLR,0.00,VWS V14.01,2013-05-22 17:24:00,
2013-05-22 13:29:00,85.5,68.5,29.83,SW,231,0.0,4.0,57,0.00,,CLR,0.00,VWS V14.01,2013-05-22 17:29:00,
2013-05-22 13:34:00,86.0,68.0,29.83,SW,224,2.0,5.0,55,0.00,,CLR,0.00,VWS V14.01,2013-05-22 17:34:00,
2013-05-22 13:39:00,86.1,68.1,29.83,WNW,283,3.0,7.0,55,0.00,,CLR,0.00,VWS V14.01,2013-05-22 17:39:00,
2013-05-22 13:44:00,86.5,67.3,29.82,SW,225,2.0,5.0,53,0.00,,CLR,0.00,VWS V14.01,2013-05-22 17:44:00,
2013-05-22 13:49:00,86.5,67.3,29.82,SW,230,4.0,6.0,53,0.00,,CLR,0.00,VWS V14.01,2013-05-22 17:49:00,
2013-05-22 13:54:00,86.3,67.2,29.82,SW,218,1.0,5.0,53,0.00,,CLR,0.00,VWS V14.01,2013-05-22 17:54:00,
2013-05-22 13:59:00,87.7,69.0,29.82,SW,226,2.0,4.0,54,0.00,,CLR,0.00,VWS V14.01,2013-05-22 17:59:00,
2013-05-22 14:04:00,88.0,68.7,29.82,WSW,248,3.0,7.0,53,0.00,,CLR,0.00,VWS V14.01,2013-05-22 18:04:00,
2013-05-22 14:09:00,87.1,67.9,29.81,West,263,1.0,8.0,53,0.00,,CLR,0.00,VWS V14.01,2013-05-22 18:09:00,
2013-05-22 14:15:00,87.4,67.6,29.81,WNW,290,3.0,4.0,52,0.00,,CLR,0.00,VWS V14.01,2013-05-22 18:15:00,
2013-05-22 14:20:00,87.9,67.5,29.81,SW,235,4.0,8.0,51,0.00,,CLR,0.00,VWS V14.01,2013-05-22 18:20:00,
2013-05-22 14:25:00,88.0,67.6,29.81,SE,128,5.0,5.0,51,0.00,,CLR,0.00,VWS V14.01,2013-05-22 18:25:00,
2013-05-22 14:30:00,88.5,68.1,29.80,SE,134,5.0,8.0,51,0.00,,CLR,0.00,VWS V14.01,2013-05-22 18:30:00,
2013-05-22 14:35:00,88.0,66.5,29.80,West,271,3.0,8.0,49,0.00,,CLR,0.00,VWS V14.01,2013-05-22 18:35:00,
2013-05-22 14:40:00,88.2,67.8,29.80,SSW,198,3.0,9.0,51,0.00,,CLR,0.00,VWS V14.01,2013-05-22 18:40:00,
2013-05-22 14:45:00,88.1,67.7,29.80,West,266,2.0,3.0,51,0.00,,CLR,0.00,VWS V14.01,2013-05-22 18:45:00,
2013-05-22 14:50:00,88.4,67.4,29.80,SW,225,3.0,3.0,50,0.00,,CLR,0.00,VWS V14.01,2013-05-22 18:50:00,
2013-05-22 14:55:00,88.3,69.0,29.80,SW,218,5.0,8.0,53,0.00,,CLR,0.00,VWS V14.01,2013-05-22 18:55:00,
2013-05-22 15:00:00,88.5,65.1,29.80,South,169,6.0,6.0,46,0.00,,CLR,0.00,VWS V14.01,2013-05-22 19:00:00,
2013-05-22 15:05:00,88.3,65.5,29.79,WSW,253,4.0,5.0,47,0.00,,FEW060,0.00,VWS V14.01,2013-05-22 19:05:00,
2013-05-22 15:10:00,88.2,65.4,29.79,SW,228,1.0,1.0,47,0.00,,FEW060,0.00,VWS V14.01,2013-05-22 19:10:00,
2013-05-22 15:15:00,88.7,67.1,29.79,WSW,240,5.0,6.0,49,0.00,,FEW060,0.00,VWS V14.01,2013-05-22 19:15:00,
2013-05-22 15:20:00,88.5,65.7,29.79,SW,222,6.0,9.0,47,0.00,,FEW060,0.00,VWS V14.01,2013-05-22 19:20:00,
2013-05-22 15:25:00,88.4,65.0,29.79,WSW,246,4.0,6.0,46,0.00,,FEW060,0.00,VWS V14.01,2013-05-22 19:25:00,
2013-05-22 15:30:00,88.4,66.2,29.79,WSW,241,3.0,7.0,48,0.00,,FEW060,0.00,VWS V14.01,2013-05-22 19:30:00,
2013-05-22 15:35:00,88.7,66.5,29.79,SW,224,5.0,6.0,48,0.00,,FEW060,0.00,VWS V14.01,2013-05-22 19:35:00,
2013-05-22 15:41:00,88.8,67.8,29.79,West,263,6.0,6.0,50,0.00,,FEW060,0.00,VWS V14.01,2013-05-22 19:41:00,
2013-05-22 15:46:00,88.7,66.5,29.78,SSW,204,3.0,8.0,48,0.00,,FEW060,0.00,VWS V14.01,2013-05-22 19:46:00,
2013-05-22 15:51:00,88.8,67.2,29.78,South,187,4.0,8.0,49,0.00,,FEW060,0.00,VWS V14.01,2013-05-22 19:51:00,
2013-05-22 15:56:00,88.5,66.3,29.78,SW,226,6.0,7.0,48,0.00,,FEW060,0.00,VWS V14.01,2013-05-22 19:56:00,
2013-05-22 16:01:00,88.5,65.1,29.78,South,177,2.0,9.0,46,0.00,,FEW060,0.00,VWS V14.01,2013-05-22 20:01:00,
2013-05-22 16:06:00,88.7,65.9,29.78,SSW,209,5.0,8.0,47,0.00,,BKN090,0.00,VWS V14.01,2013-05-22 20:06:00,
2013-05-22 16:11:00,89.1,67.5,29.78,SW,225,3.0,5.0,49,0.00,,BKN090,0.00,VWS V14.01,2013-05-22 20:11:00,
2013-05-22 16:16:00,89.5,67.2,29.77,SW,233,6.0,7.0,48,0.00,,BKN090,0.00,VWS V14.01,2013-05-22 20:16:00,
2013-05-22 16:21:00,89.4,66.5,29.77,SW,225,2.0,8.0,47,0.00,,BKN090,0.00,VWS V14.01,2013-05-22 20:21:00,
2013-05-22 16:26:00,89.5,66.6,29.77,SW,228,5.0,7.0,47,0.00,,BKN090,0.00,VWS V14.01,2013-05-22 20:26:00,
2013-05-22 16:31:00,89.4,65.9,29.77,WSW,246,11.0,11.0,46,0.00,,BKN090,0.00,VWS V14.01,2013-05-22 20:31:00,
2013-05-22 16:36:00,89.1,66.9,29.77,West,262,4.0,9.0,48,0.00,,BKN090,0.00,VWS V14.01,2013-05-22 20:36:00,
2013-05-22 16:42:00,88.8,66.0,29.76,SW,236,6.0,10.0,47,0.00,,BKN090,0.00,VWS V14.01,2013-05-22 20:42:00,
2013-05-22 16:47:00,88.8,71.6,29.76,SE,134,7.0,11.0,57,0.00,,BKN090,0.00,VWS V14.01,2013-05-22 20:47:00,
2013-05-22 16:52:00,87.8,73.2,29.76,South,183,6.0,11.0,62,0.00,,BKN090,0.00,VWS V14.01,2013-05-22 20:52:00,
2013-05-22 16:57:00,87.0,72.9,29.76,SSE,165,12.0,15.0,63,0.00,,BKN090,0.00,VWS V14.01,2013-05-22 20:57:00,
2013-05-22 17:02:00,86.3,73.2,29.76,SSE,160,9.0,10.0,65,0.00,,CLR,0.00,VWS V14.01,2013-05-22 21:02:00,
2013-05-22 17:07:00,86.1,73.0,29.76,SSE,166,6.0,10.0,65,0.00,,CLR,0.00,VWS V14.01,2013-05-22 21:07:00,
2013-05-22 17:12:00,85.4,73.2,29.75,SE,142,13.0,16.0,67,0.00,,CLR,0.00,VWS V14.01,2013-05-22 21:12:00,
2013-05-22 17:17:00,85.0,72.8,29.75,SSE,149,8.0,11.0,67,0.00,,CLR,0.00,VWS V14.01,2013-05-22 21:17:00,
2013-05-22 17:22:00,84.8,72.2,29.76,WSW,241,9.0,14.0,66,0.00,,CLR,0.00,VWS V14.01,2013-05-22 21:22:00,
2013-05-22 17:27:00,85.1,72.5,29.75,South,187,4.0,12.0,66,0.00,,CLR,0.00,VWS V14.01,2013-05-22 21:27:00,
2013-05-22 17:32:00,85.4,73.2,29.75,SW,221,2.0,8.0,67,0.00,,CLR,0.00,VWS V14.01,2013-05-22 21:32:00,
2013-05-22 17:37:00,85.2,72.1,29.75,SSE,165,11.0,19.0,65,0.00,,CLR,0.00,VWS V14.01,2013-05-22 21:37:00,
2013-05-22 17:42:00,84.7,71.6,29.76,South,191,8.0,17.0,65,0.00,,CLR,0.00,VWS V14.01,2013-05-22 21:42:00,
2013-05-22 17:48:00,84.3,71.7,29.76,SE,145,8.0,10.0,66,0.00,,CLR,0.00,VWS V14.01,2013-05-22 21:48:00,
2013-05-22 17:53:00,84.2,72.1,29.76,SSE,150,9.0,11.0,67,0.00,,CLR,0.00,VWS V14.01,2013-05-22 21:53:00,
2013-05-22 17:58:00,84.1,71.5,29.76,SW,225,7.0,13.0,66,0.00,,CLR,0.00,VWS V14.01,2013-05-22 21:58:00,
2013-05-22 18:03:00,84.0,71.9,29.76,SW,226,5.0,9.0,67,0.00,,CLR,0.00,VWS V14.01,2013-05-22 22:03:00,
2013-05-22 18:08:00,84.2,71.6,29.76,SE,142,3.0,12.0,66,0.00,,CLR,0.00,VWS V14.01,2013-05-22 22:08:00,
2013-05-22 18:13:00,84.4,71.8,29.76,South,174,0.0,12.0,66,0.00,,CLR,0.00,VWS V14.01,2013-05-22 22:13:00,
2013-05-22 18:18:00,84.4,72.2,29.76,South,190,9.0,11.0,67,0.00,,CLR,0.00,VWS V14.01,2013-05-22 22:18:00,
2013-05-22 18:23:00,84.3,71.7,29.76,South,188,4.0,12.0,66,0.00,,CLR,0.00,VWS V14.01,2013-05-22 22:23:00,
2013-05-22 18:28:00,84.1,72.0,29.76,SSE,166,7.0,12.0,67,0.00,,CLR,0.00,VWS V14.01,2013-05-22 22:28:00,
2013-05-22 18:34:00,83.7,72.5,29.76,SSE,161,7.0,12.0,69,0.00,,CLR,0.00,VWS V14.01,2013-05-22 22:34:00,
2013-05-22 18:39:00,83.1,72.3,29.77,ESE,122,3.0,16.0,70,0.00,,CLR,0.00,VWS V14.01,2013-05-22 22:39:00,
2013-05-22 18:44:00,83.0,72.2,29.77,SE,135,3.0,8.0,70,0.00,,CLR,0.00,VWS V14.01,2013-05-22 22:44:00,
2013-05-22 18:49:00,83.0,72.2,29.77,SSE,156,8.0,12.0,70,0.00,,CLR,0.00,VWS V14.01,2013-05-22 22:49:00,
2013-05-22 18:54:00,82.6,71.8,29.77,SSE,152,8.0,14.0,70,0.00,,CLR,0.00,VWS V14.01,2013-05-22 22:54:00,
2013-05-22 18:59:00,82.3,72.0,29.77,SE,145,7.0,9.0,71,0.00,,CLR,0.00,VWS V14.01,2013-05-22 22:59:00,
2013-05-22 19:04:00,81.7,71.8,29.77,SE,140,8.0,11.0,72,0.00,,CLR,0.00,VWS V14.01,2013-05-22 23:04:00,
2013-05-22 19:09:00,81.5,71.6,29.77,SE,145,8.0,14.0,72,0.00,,CLR,0.00,VWS V14.01,2013-05-22 23:09:00,
2013-05-22 19:14:00,81.0,71.1,29.77,SE,133,10.0,12.0,72,0.00,,CLR,0.00,VWS V14.01,2013-05-22 23:14:00,
2013-05-22 19:19:00,80.4,71.0,29.78,SSE,158,10.0,18.0,73,0.00,,CLR,0.00,VWS V14.01,2013-05-22 23:19:00,
2013-05-22 19:24:00,80.1,71.1,29.77,SSE,163,4.0,13.0,74,0.00,,CLR,0.00,VWS V14.01,2013-05-22 23:24:00,
2013-05-22 19:29:00,79.5,70.9,29.77,South,180,7.0,10.0,75,0.00,,CLR,0.00,VWS V14.01,2013-05-22 23:29:00,
2013-05-22 19:34:00,78.9,70.7,29.78,SSE,150,6.0,9.0,76,0.00,,CLR,0.00,VWS V14.01,2013-05-22 23:34:00,
2013-05-22 19:39:00,78.6,70.4,29.78,SSE,149,5.0,9.0,76,0.00,,CLR,0.00,VWS V14.01,2013-05-22 23:39:00,
2013-05-22 19:44:00,78.2,70.0,29.78,SSE,158,5.0,11.0,76,0.00,,CLR,0.00,VWS V14.01,2013-05-22 23:44:00,
2013-05-22 19:50:00,77.8,70.4,29.78,SE,145,6.0,9.0,78,0.00,,CLR,0.00,VWS V14.01,2013-05-22 23:50:00,
2013-05-22 19:55:00,77.5,70.5,29.79,South,172,6.0,9.0,79,0.00,,CLR,0.00,VWS V14.01,2013-05-22 23:55:00,
2013-05-22 20:00:00,77.4,70.4,29.79,SSE,149,6.0,9.0,79,0.00,,CLR,0.00,VWS V14.01,2013-05-23 00:00:00,
2013-05-22 20:05:00,77.4,70.8,29.80,South,184,2.0,9.0,80,0.00,,CLR,0.00,VWS V14.01,2013-05-23 00:05:00,
2013-05-22 20:10:00,77.3,71.0,29.80,South,190,4.0,8.0,81,0.00,,CLR,0.00,VWS V14.01,2013-05-23 00:10:00,
2013-05-22 20:15:00,77.1,70.8,29.80,SSE,153,3.0,6.0,81,0.00,,CLR,0.00,VWS V14.01,2013-05-23 00:15:00,
2013-05-22 20:20:00,77.0,71.1,29.80,SSE,153,3.0,6.0,82,0.00,,CLR,0.00,VWS V14.01,2013-05-23 00:20:00,
2013-05-22 20:25:00,76.8,71.2,29.80,South,181,6.0,7.0,83,0.00,,CLR,0.00,VWS V14.01,2013-05-23 00:25:00,
2013-05-22 20:30:00,76.8,71.6,29.80,SSW,194,7.0,9.0,84,0.00,,CLR,0.00,VWS V14.01,2013-05-23 00:30:00,
2013-05-22 20:35:00,76.7,71.5,29.80,SE,141,4.0,9.0,84,0.00,,,0.00,VWS V14.01,2013-05-23 00:35:00,
2013-05-22 20:40:00,76.5,71.3,29.80,SE,138,3.0,9.0,84,0.00,,,0.00,VWS V14.01,2013-05-23 00:40:00,
2013-05-22 20:45:00,76.4,71.6,29.81,SSE,158,6.0,10.0,85,0.00,,,0.00,VWS V14.01,2013-05-23 00:45:00,
2013-05-22 20:50:00,76.3,71.5,29.81,South,174,5.0,9.0,85,0.00,,,0.00,VWS V14.01,2013-05-23 00:50:00,
2013-05-22 20:55:00,76.2,71.4,29.83,WNW,296,5.0,9.0,85,0.00,,,0.00,VWS V14.01,2013-05-23 00:55:00,
2013-05-22 21:00:00,75.7,64.8,29.84,North,8,4.0,20.0,69,0.00,,,0.00,VWS V14.01,2013-05-23 01:00:00,
2013-05-22 21:05:00,75.2,63.9,29.85,WSW,242,5.0,18.0,68,0.00,,BKN090,0.00,VWS V14.01,2013-05-23 01:05:00,
2013-05-22 21:10:00,74.4,64.8,29.85,WNW,290,9.0,11.0,72,0.00,,BKN090,0.00,VWS V14.01,2013-05-23 01:10:00,
2013-05-22 21:15:00,73.6,64.8,29.84,WNW,290,6.0,14.0,74,0.00,,BKN090,0.00,VWS V14.01,2013-05-23 01:15:00,
2013-05-22 21:20:00,72.7,65.1,29.85,WSW,257,6.0,15.0,77,0.00,,BKN090,0.00,VWS V14.01,2013-05-23 01:20:00,
2013-05-22 21:25:00,71.5,65.0,29.85,West,266,2.0,3.0,80,0.00,,BKN090,0.00,VWS V14.01,2013-05-23 01:25:00,
2013-05-22 21:30:00,70.8,65.0,29.85,West,260,2.0,4.0,82,0.00,,BKN090,0.00,VWS V14.01,2013-05-23 01:30:00,
2013-05-22 21:35:00,70.3,64.6,29.85,WNW,285,4.0,5.0,82,0.00,,BKN090,0.00,VWS V14.01,2013-05-23 01:35:00,
2013-05-22 21:40:00,69.8,64.4,29.86,NW,323,2.0,4.0,83,0.00,,BKN090,0.00,VWS V14.01,2013-05-23 01:40:00,
2013-05-22 21:45:00,69.5,64.1,29.85,West,281,0.0,0.0,83,0.00,,BKN090,0.00,VWS V14.01,2013-05-23 01:45:00,
2013-05-22 21:50:00,69.3,64.3,29.85,West,267,0.0,1.0,84,0.00,,BKN090,0.00,VWS V14.01,2013-05-23 01:50:00,
2013-05-22 21:55:00,69.2,64.5,29.85,WNW,297,0.0,1.0,85,0.00,,BKN090,0.00,VWS V14.01,2013-05-23 01:55:00,
2013-05-22 22:00:00,69.1,64.7,29.85,NNE,17,0.0,0.0,86,0.00,,BKN090,0.00,VWS V14.01,2013-05-23 02:00:00,
2013-05-22 22:05:00,68.9,64.6,29.85,SW,225,0.0,0.0,86,0.00,,FEW060,0.00,VWS V14.01,2013-05-23 02:05:00,
2013-05-22 22:10:00,68.7,64.7,29.85,SSE,149,0.0,0.0,87,0.00,,FEW060,0.00,VWS V14.01,2013-05-23 02:10:00,
2013-05-22 22:15:00,68.6,64.6,29.85,WSW,253,0.0,0.0,87,0.00,,FEW060,0.00,VWS V14.01,2013-05-23 02:15:00,
2013-05-22 22:20:00,68.5,64.5,29.85,West,274,0.0,1.0,87,0.00,,FEW060,0.00,VWS V14.01,2013-05-23 02:20:00,
2013-05-22 22:26:00,68.4,64.4,29.85,WSW,252,0.0,0.0,87,0.00,,FEW060,0.00,VWS V14.01,2013-05-23 02:26:00,
2013-05-22 22:31:00,68.1,64.4,29.85,WSW,253,0.0,0.0,88,0.00,,FEW060,0.00,VWS V14.01,2013-05-23 02:31:00,
2013-05-22 22:36:00,68.1,64.4,29.86,WSW,252,0.0,2.0,88,0.00,,FEW060,0.00,VWS V14.01,2013-05-23 02:36:00,
2013-05-22 22:41:00,68.2,64.2,29.86,SW,225,0.0,3.0,87,0.00,,FEW060,0.00,VWS V14.01,2013-05-23 02:41:00,
2013-05-22 22:46:00,68.3,64.0,29.86,SSE,166,0.0,2.0,86,0.00,,FEW060,0.00,VWS V14.01,2013-05-23 02:46:00,
2013-05-22 22:51:00,68.5,63.8,29.86,South,176,1.0,2.0,85,0.00,,FEW060,0.00,VWS V14.01,2013-05-23 02:51:00,
2013-05-22 22:56:00,68.6,63.9,29.86,South,173,1.0,1.0,85,0.00,,FEW060,0.00,VWS V14.01,2013-05-23 02:56:00,
2013-05-22 23:01:00,68.8,63.8,29.85,SW,232,0.0,3.0,84,0.00,,SCT090,0.00,VWS V14.01,2013-05-23 03:01:00,
2013-05-22 23:06:00,69.0,63.6,29.85,WSW,243,0.0,1.0,83,0.00,,SCT090,0.00,VWS V14.01,2013-05-23 03:06:00,
2013-05-22 23:11:00,69.0,64.0,29.84,SE,138,0.0,1.0,84,0.00,,SCT090,0.00,VWS V14.01,2013-05-23 03:11:00,
2013-05-22 23:16:00,68.5,63.5,29.84,ESE,105,1.0,2.0,84,0.00,,SCT090,0.00,VWS V14.01,2013-05-23 03:16:00,
2013-05-22 23:22:00,67.8,63.5,29.83,East,85,1.0,2.0,86,0.00,,SCT090,0.00,VWS V14.01,2013-05-23 03:22:00,
2013-05-22 23:27:00,67.8,63.5,29.83,ESE,107,1.0,3.0,86,0.00,,SCT090,0.00,VWS V14.01,2013-05-23 03:27:00,
2013-05-22 23:32:00,67.7,63.4,29.83,ESE,107,0.0,0.0,86,0.00,,SCT090,0.00,VWS V14.01,2013-05-23 03:32:00,
2013-05-22 23:37:00,67.6,63.6,29.84,SW,214,0.0,0.0,87,0.00,,SCT090,0.00,VWS V14.01,2013-05-23 03:37:00,
2013-05-22 23:42:00,67.2,63.5,29.84,SW,231,1.0,2.0,88,0.00,,SCT090,0.00,VWS V14.01,2013-05-23 03:42:00,
2013-05-22 23:47:00,67.1,63.8,29.85,SSE,159,0.0,2.0,89,0.00,,SCT090,0.00,VWS V14.01,2013-05-23 03:47:00,
2013-05-22 23:52:00,67.2,63.8,29.85,SW,231,0.0,2.0,89,0.00,,SCT090,0.00,VWS V14.01,2013-05-23 03:52:00,
2013-05-22 23:57:00,67.1,63.8,29.86,SW,236,2.0,2.0,89,0.00,,SCT090,0.00,VWS V14.01,2013-05-23 03:57:00,